Location: Foulognes
(49.1413°N, 0.8183°W)
Time: 07:07:45
(UTC+00:00)

Cosmos 1802 Rocket - Pass Details

Date: 21 October 2019
Orbit: 954 x 1011 km, 82.9° (Epoch: 19 November)

Event Time Altitude Azimuth Distance (km) Brightness Sun altitude
Rises 19:11:42 0° 350° (N) 3,759 7.3 -21.8°
Reaches altitude 10° 19:14:16 10° 352° (N) 2,804 6.6 -22.2°
Maximum altitude 19:20:44 84° 80° (E) 1,020 3.9 -23.3°
Enters shadow 19:26:33 13° 170° (S) 2,550 6.0 -24.2°
